User: anonymous   Login
Location: Unspecified
(0.0000°N, 0.0000°E)
Time: 11:11:53
(UTC+02:00)
Language:

GPS 2-05 Rocket1 - Orbit

View from above orbital plane
View from above orbital plane
View from above satellite
View from above satellite

Ground track
Ground track

The orbit data is extracted from the following two-line orbital elements,

1 20362U 89097B   16242.54672106  .00009680  00000-0  17807-3 0  9991
2 20362  35.6096 329.4937 0065287 150.3372 327.7914 15.46069167454551
Epoch (UTC): 29 August 2016 13:07:16
Eccentricity: 0.0065287
inclination: 35.6096°
perigee height: 384 km
apogee height: 472 km
right ascension of ascending node: 329.4937°
argument of perigee: 150.3372°
revolutions per day: 15.46069167
mean anomaly at epoch: 327.7914°
orbit number at epoch: 45455

The dashed part of the orbit path shows where the satellite is in the earth's shadow,  

DLR